KO4RJX-10 Weather Reports


time (UTC)temp
C
wind
direction
speed
KPH
gust
KPH
rain 1hr
cm
rain 24hr
cm
rain mn
cm
humidity
%
barometer
mb
20260508064946 10 19 1.6 3.2 0.00 0.00 0.00 100 1006.8
20260508064306 10 322 1.6 1.6 0.00 0.00 0.00 100 1006.8
20260508063626 10 7 1.6 1.6 0.00 0.00 0.00 100 1006.8
20260508062946 10 323 1.6 1.6 0.00 0.00 0.00 100 1006.8
20260508062515 10 282 1.6 1.6 0.00 0.00 0.00 100 1006.8
20260508061626 10 344 1.6 1.6 0.00 0.00 0.00 100 1006.8
20260508060946 10 332 0.0 1.6 0.00 0.00 0.00 100 1006.8
20260508060306 11 344 1.6 3.2 0.00 0.00 0.00 100 1006.8
20260508055626 11 251 1.6 3.2 0.00 0.00 0.00 100 1006.8
20260508054946 11 207 3.2 3.2 0.00 0.00 0.00 100 1006.8
20260508054307 11 6 1.6 3.2 0.00 0.00 0.00 100 1006.4
20260508053627 11 321 1.6 1.6 0.00 0.00 0.00 100 1006.4
20260508052946 11 332 0.0 3.2 0.00 0.00 0.00 100 1006.4
20260508052307 11 330 1.6 4.8 0.00 0.00 0.00 99 1006.4
20260508051626 11 298 1.6 4.8 0.00 0.00 0.00 99 1006.4
20260508050947 11 332 3.2 4.8 0.00 0.00 0.00 98 1006.4
20260508050306 11 321 1.6 3.2 0.00 0.00 0.00 98 1006.4
20260508045626 11 20 1.6 4.8 0.00 0.00 0.00 97 1006.4
20260508044946 11 317 3.2 6.4 0.00 0.00 0.00 97 1006.4
20260508044306 11 309 4.8 6.4 0.00 0.00 0.00 96 1006.4
20260508043840 11 297 3.2 6.4 0.00 0.00 0.00 96 1006.4
20260508042946 11 321 4.8 6.4 0.00 0.00 0.00 96 1006.4
20260508042307 11 324 3.2 8.0 0.00 0.00 0.00 95 1006.4
20260508041626 11 274 1.6 6.4 0.00 0.00 0.00 95 1006.4
20260508040946 11 274 1.6 8.0 0.00 0.00 0.00 95 1006.4
20260508040306 11 280 1.6 8.0 0.00 0.00 0.00 95 1006.1
20260508035626 11 265 3.2 8.0 0.00 0.00 2.34 95 1006.1
20260508034946 11 313 6.4 12.9 0.00 0.00 2.34 94 1005.8
20260508034306 11 333 6.4 9.7 0.00 0.00 2.34 94 1005.8
20260508033626 11 331 6.4 9.7 0.00 0.00 2.34 94 1005.8
20260508032946 11 297 4.8 8.0 0.00 0.00 2.34 94 1005.8
20260508032307 11 324 3.2 9.7 0.00 0.00 2.34 96 1005.4
20260508031626 11 334 4.8 9.7 0.00 0.00 2.34 95 1005.4
20260508030946 11 317 6.4 8.0 0.00 0.00 2.34 95 1005.4
20260508030306 11 325 3.2 6.4 0.00 0.00 2.34 96 1005.4
20260508025840 11 321 4.8 6.4 0.00 0.00 2.34 95 1005.4
20260508024946 11 327 3.2 6.4 0.00 0.00 2.34 95 1005.4
20260508024516 11 18 1.6 6.4 0.00 0.00 2.34 95 1005.4
20260508023626 11 40 1.6 9.7 0.00 0.00 2.34 95 1005.1
20260508022946 11 331 6.4 9.7 0.00 0.00 2.34 94 1005.1
20260508022307 11 306 3.2 6.4 0.00 0.00 2.34 95 1005.1
20260508021626 11 351 1.6 4.8 0.00 0.00 2.34 97 1005.1
20260508021159 11 125 1.6 4.8 0.00 0.00 2.34 96 1005.1
20260508020520 11 35 3.2 9.7 0.00 0.00 2.34 96 1004.7
20260508015626 11 313 8.0 9.7 0.00 0.00 2.34 96 1005.1
20260508015156 11 286 3.2 8.0 0.00 0.00 2.34 96 1005.1
20260508014306 11 309 4.8 11.3 0.00 0.00 2.34 95 1004.7
20260508013626 11 10 4.8 12.9 0.00 0.00 2.34 96 1004.4
20260508013158 11 27 3.2 8.0 0.00 0.00 2.34 96 1004.1
20260508012307 11 7 3.2 8.0 0.00 0.00 2.34 96 1004.4
20260508011626 11 1 1.6 12.9 0.00 0.00 2.34 96 1004.4
20260508010946 11 331 8.0 12.9 0.00 0.00 2.34 95 1004.7
20260508010306 11 330 6.4 12.9 0.00 0.00 2.34 95 1004.1
20260508005626 12 46 6.4 11.3 0.00 0.00 2.34 93 1004.1
20260508004946 12 291 6.4 11.3 0.00 0.00 2.34 91 1004.7
20260508004306 12 341 4.8 9.7 0.00 0.00 2.34 87 1004.1
20260508003626 12 47 4.8 9.7 0.00 0.00 2.31 87 1003.7
20260508002946 12 31 4.8 9.7 0.00 0.00 2.31 86 1003.7
20260508002307 12 41 1.6 12.9 0.00 0.00 2.31 86 1003.7
20260508001627 12 12 4.8 16.1 0.00 0.00 2.31 86 1003.7
20260508000946 12 32 4.8 19.3 0.00 0.00 2.31 86 1003.4
20260508000306 12 43 4.8 14.5 0.00 0.00 2.31 87 1003.0
20260507235626 12 27 8.0 16.1 0.00 0.00 2.31 87 1003.4
20260507235157 12 1 6.4 17.7 0.00 0.00 2.31 87 1003.4
20260507234306 12 16 4.8 19.3 0.00 0.00 2.31 87 1003.0
20260507233626 12 13 8.0 19.3 0.00 0.00 2.31 86 1003.0
20260507232946 12 2 6.4 17.7 0.00 0.00 2.31 88 1003.0
20260507232307 12 342 8.0 17.7 0.00 0.00 2.31 88 1003.0
20260507231626 12 355 6.4 19.3 0.00 0.00 2.31 88 1003.0
20260507231156 12 26 6.4 16.1 0.00 0.00 2.31 88 1003.0
20260507230306 12 348 8.0 17.7 0.00 0.00 2.31 88 1003.0
20260507225626 12 3 9.7 19.3 0.00 0.00 2.31 89 1002.4
20260507224946 12 344 6.4 19.3 0.00 0.00 2.31 89 1002.7
20260507224306 12 36 8.0 19.3 0.00 0.00 2.31 88 1002.7
20260507223626 12 341 9.7 20.9 0.00 0.00 2.31 88 1002.7
20260507222946 12 357 4.8 19.3 0.00 0.00 2.31 88 1002.7
20260507222306 12 34 9.7 25.7 0.00 0.00 2.31 88 1002.7
20260507221626 12 339 8.0 29.0 0.00 0.00 2.31 88 1002.7
20260507220946 12 341 11.3 29.0 0.00 0.00 2.31 88 1002.4
20260507220306 12 1 8.0 30.6 0.00 0.00 2.31 89 1002.4
20260507215626 12 341 14.5 32.2 0.00 0.00 2.31 91 1002.4
20260507214947 13 330 16.1 32.2 0.00 0.00 2.31 90 1002.4
20260507214519 13 339 16.1 27.4 0.00 0.00 2.31 91 1002.0
20260507213626 14 358 9.7 20.9 0.00 0.00 2.31 92 1001.7
20260507212946 14 6 8.0 29.0 0.00 0.00 2.31 91 1001.7
20260507212307 14 355 14.5 29.0 0.00 0.00 2.31 89 1001.7
20260507211836 14 2 6.4 19.3 0.00 0.00 2.31 89 1001.7
20260507210946 15 359 9.7 24.1 0.00 0.00 2.31 89 1001.7
20260507210306 15 13 9.7 24.1 0.00 0.00 2.31 88 1001.4
20260507205626 15 19 8.0 20.9 0.00 0.00 2.31 89 1001.4
20260507204946 15 4 6.4 22.5 0.00 0.00 2.31 89 1001.4
20260507204306 15 356 9.7 25.7 0.00 0.00 2.31 90 1001.4
20260507203626 15 352 9.7 25.7 0.00 0.00 2.31 89 1001.0
20260507202946 15 350 8.0 24.1 0.00 0.00 2.31 91 1001.0
20260507202307 15 11 6.4 25.7 0.00 0.00 2.31 94 1001.0
20260507201626 16 332 14.5 25.7 0.00 0.00 2.31 92 1001.0
20260507200946 16 337 12.9 32.2 0.00 0.00 2.31 92 1001.0
20260507200310 16 317 16.1 25.7 0.00 0.00 2.31 95 1001.0
20260507195626 16 327 12.9 25.7 0.00 0.00 2.31 95 1001.0
20260507194947 16 330 11.3 30.6 0.00 0.00 2.31 94 1000.7
20260507194306 16 330 14.5 30.6 0.00 0.00 2.31 92 1000.7
20260507193626 16 323 17.7 30.6 0.00 0.00 2.31 92 1000.7
20260507192947 17 323 17.7 30.6 0.00 0.00 2.31 92 1000.7
20260507192306 18 326 16.1 24.1 0.00 0.00 2.31 89 1000.3
20260507191627 21 312 9.7 19.3 0.00 0.00 2.31 79 1000.0
20260507190947 22 203 8.0 17.7 0.00 0.00 2.31 82 999.7
20260507190306 22 199 9.7 19.3 0.00 0.00 2.31 87 1000.0
20260507185627 22 198 11.3 20.9 0.00 0.00 2.31 89 1000.3
20260507184946 21 196 14.5 20.9 0.00 0.00 2.31 90 1000.3
20260507184306 21 200 9.7 16.1 0.00 0.00 2.31 93 1000.7
20260507183626 21 289 4.8 14.5 0.00 0.00 2.31 93 1000.3
20260507182946 21 198 9.7 14.5 0.00 0.00 2.31 93 1000.7
20260507182307 21 208 6.4 20.9 0.00 0.00 2.31 92 1000.7
20260507181626 21 200 12.9 20.9 0.00 0.00 2.29 90 1000.7
20260507180947 21 201 8.0 16.1 0.00 0.00 2.29 92 1000.7
20260507180306 21 197 9.7 19.3 0.00 0.00 2.29 92 1000.7
20260507175626 21 197 11.3 19.3 0.00 0.00 2.29 89 1000.3
20260507174946 21 203 4.8 16.1 0.00 0.00 2.29 94 1000.0
20260507174306 21 84 3.2 12.9 0.00 0.00 2.29 95 1000.3
20260507173837 20 131 3.2 9.7 0.00 0.00 2.26 96 1000.3
20260507172946 20 137 1.6 9.7 0.00 0.00 2.26 96 1000.7
20260507172308 20 172 6.4 9.7 0.00 0.00 2.26 94 1000.7
20260507171626 20 202 4.8 9.7 0.00 0.00 2.26 95 1000.7
20260507170946 20 190 4.8 12.9 0.00 0.00 2.24 95 1001.0
20260507170306 20 204 6.4 12.9 0.00 0.00 2.24 96 1001.4
20260507165626 20 188 8.0 12.9 0.00 0.00 2.21 96 1001.7
20260507164946 20 209 6.4 19.3 0.00 0.00 2.21 96 1001.7
20260507164306 20 200 11.3 19.3 0.00 0.00 2.21 96 1001.7
20260507163626 20 194 6.4 12.9 0.00 0.00 2.21 96 1001.7
20260507162946 20 219 4.8 11.3 0.00 0.00 2.21 96 1002.0
20260507162307 20 193 6.4 9.7 0.00 0.00 2.21 96 1002.0
20260507161626 20 196 4.8 12.9 0.00 0.00 2.21 96 1001.7
20260507160946 20 146 4.8 12.9 0.00 0.00 2.21 96 1001.7
20260507160306 20 128 4.8 11.3 0.00 0.00 2.18 97 1002.0
20260507155627 20 164 3.2 8.0 0.00 0.00 2.18 98 1002.0
20260507154946 20 137 3.2 6.4 0.00 0.00 2.18 97 1001.7
20260507154306 20 117 4.8 6.4 0.00 0.00 2.18 97 1001.7
20260507153838 20 198 1.6 8.0 0.00 0.00 2.16 98 1002.4
20260507152946 20 197 4.8 8.0 0.00 0.00 2.11 99 1002.4
20260507152307 20 262 3.2 8.0 0.00 0.00 2.06 99 1002.4
20260507151626 20 204 4.8 8.0 0.00 0.00 2.01 99 1002.7
20260507150946 20 203 6.4 11.3 0.00 0.00 1.98 98 1002.7
20260507150306 20 216 6.4 11.3 0.00 0.00 1.96 98 1002.7
20260507145837 20 213 4.8 19.3 0.00 0.00 1.91 98 1002.7
20260507144946 20 201 11.3 19.3 0.00 0.00 1.83 97 1002.7
20260507144306 20 219 11.3 19.3 0.00 0.00 1.75 95 1002.7
20260507143626 20 199 6.4 19.3 0.00 0.00 1.63 96 1002.7
20260507142947 20 206 4.8 19.3 0.00 0.00 1.55 95 1002.7
20260507142307 20 200 8.0 14.5 0.00 0.00 1.52 95 1002.7
20260507141841 20 200 6.4 22.5 0.00 0.00 1.52 94 1002.4
20260507140947 20 203 8.0 24.1 0.00 0.00 1.52 93 1002.4
20260507140306 20 211 8.0 17.7 0.00 0.00 1.52 94 1002.4
20260507135626 20 219 3.2 14.5 0.00 0.00 1.52 94 1002.4
20260507135158 20 217 3.2 24.1 0.00 0.00 1.50 95 1002.7
20260507134307 20 199 16.1 24.1 0.00 0.00 1.50 92 1002.7
20260507133626 20 201 8.0 20.9 0.00 0.00 1.50 94 1002.4
20260507132946 20 197 9.7 20.9 0.00 0.00 1.50 93 1002.4
20260507132307 20 193 6.4 14.5 0.00 0.00 1.50 93 1002.4
20260507131836 20 194 6.4 16.1 0.00 0.00 1.50 94 1002.4
20260507130946 20 189 9.7 16.1 0.00 0.00 1.50 94 1002.4
20260507130307 20 180 4.8 16.1 0.00 0.00 1.50 95 1002.4
20260507125626 20 180 8.0 14.5 0.00 0.00 1.50 95 1002.4
20260507124946 20 195 6.4 14.5 0.00 0.00 1.50 95 1002.4
20260507124306 20 199 9.7 19.3 0.00 0.00 1.50 96 1002.7
20260507123626 20 193 11.3 22.5 0.00 0.00 1.50 95 1002.7
20260507123156 20 200 12.9 22.5 0.00 0.00 1.50 95 1003.0
20260507122307 20 195 8.0 16.1 0.00 0.00 1.50 95 1003.0
20260507121626 20 197 6.4 17.7 0.00 0.00 1.50 95 1003.0
20260507120946 20 177 6.4 19.3 0.00 0.00 1.50 95 1003.0
20260507120307 20 199 6.4 16.1 0.00 0.00 1.50 97 1003.4
20260507115626 20 154 4.8 14.5 0.00 0.00 1.50 98 1003.4
20260507114946 20 173 4.8 12.9 0.00 0.00 1.50 98 1003.4
20260507114306 20 192 6.4 14.5 0.00 0.00 1.50 97 1003.4
20260507113626 19 194 6.4 14.5 0.00 0.00 1.50 98 1003.4
20260507112946 19 196 9.7 14.5 0.00 0.00 1.50 99 1003.4
20260507112307 19 196 6.4 11.3 0.00 0.00 1.50 99 1003.7
20260507111838 19 201 6.4 12.9 0.00 0.00 1.50 99 1003.4
20260507110946 19 195 6.4 17.7 0.00 0.00 1.50 99 1003.4
20260507110306 19 198 6.4 19.3 0.00 0.00 1.50 99 1003.4
20260507105840 19 193 9.7 14.5 0.00 0.00 1.47 99 1003.4
20260507104946 19 195 3.2 11.3 0.00 0.00 1.47 99 1003.4
20260507104306 18 186 3.2 11.3 0.00 0.00 1.45 99 1003.4
20260507103836 18 214 6.4 11.3 0.00 0.00 1.42 100 1003.4
20260507102946 18 192 3.2 6.4 0.00 0.00 1.40 100 1003.4
20260507102518 18 178 3.2 6.4 0.00 0.00 1.37 100 1003.0
20260507101626 18 191 4.8 8.0 0.00 0.00 1.35 100 1003.0
20260507100946 18 207 4.8 9.7 0.00 0.00 1.35 100 1003.0
20260507100306 18 195 6.4 8.0 0.00 0.00 1.32 99 1003.0
20260507095626 18 154 4.8 9.7 0.00 0.00 1.30 100 1003.0
20260507094946 18 139 3.2 9.7 0.00 0.00 1.27 99 1003.0
20260507094306 18 197 4.8 9.7 0.00 0.00 1.27 99 1003.0
20260507093837 19 203 4.8 12.9 0.00 0.00 1.24 99 1003.0
20260507092946 19 190 8.0 12.9 0.00 0.00 1.22 99 1003.4
20260507092518 19 211 4.8 16.1 0.00 0.00 1.19 99 1003.0
20260507091626 18 151 6.4 16.1 0.00 0.00 1.19 99 1003.0
20260507090946 19 194 9.7 16.1 0.00 0.00 1.17 99 1003.4
20260507090306 19 203 9.7 27.4 0.00 0.00 1.04 99 1003.4
20260507085626 19 143 8.0 29.0 0.00 0.00 0.91 98 1003.4
20260507084946 18 202 11.3 22.5 0.00 0.00 0.76 99 1004.1
20260507084306 18 190 6.4 14.5 0.00 0.00 0.66 98 1004.1
20260507083626 18 180 6.4 14.5 0.00 0.00 0.58 98 1003.7
20260507082946 18 202 8.0 14.5 0.00 0.00 0.56 98 1003.7
20260507082307 18 153 4.8 12.9 0.00 0.00 0.53 98 1003.4
20260507081626 18 158 4.8 12.9 0.00 0.00 0.53 98 1003.7
20260507080946 18 104 1.6 11.3 0.00 0.00 0.53 98 1003.7
20260507080516 18 169 4.8 11.3 0.00 0.00 0.53 98 1003.7
20260507075627 18 118 3.2 9.7 0.00 0.00 0.53 99 1003.7
20260507074946 18 148 4.8 9.7 0.00 0.00 0.53 99 1003.7
20260507074306 18 127 1.6 6.4 0.00 0.00 0.51 99 1004.1
20260507073626 18 124 1.6 4.8 0.00 0.00 0.51 99 1004.1
20260507072946 18 118 3.2 6.4 0.00 0.00 0.51 98 1004.1
20260507072307 18 119 3.2 6.4 0.00 0.00 0.51 98 1004.1
20260507071835 18 154 3.2 6.4 0.00 0.00 0.51 99 1004.1
20260507070946 18 133 3.2 4.8 0.00 0.00 0.51 99 1004.1
20260507070306 18 132 1.6 4.8 0.00 0.00 0.51 99 1004.4
20260507065626 18 156 1.6 4.8 0.00 0.00 0.51 99 1004.4